Weather History for Monticello, KY

Change the Weather History Date:

Wednesday, November 27, 2013

  Actual Average Record
Temperature  
Mean Temperature 24 °F -  
Max Temperature 32 °F 57 °F 74 °F (1985)
Min Temperature 16 °F 38 °F 16 °F (2013)
Degree Days  
Heating Degree Days 41    
Moisture  
Dew Point 24 °F    
Average Humidity 84    
Maximum Humidity 93    
Minimum Humidity 66    
Precipitation  
Precipitation 0.00 in - - ()
Sea Level Pressure  
Sea Level Pressure 30.12 in    
Wind  
Wind Speed 12 mph (NW)    
Max Wind Speed 18 mph    
Max Gust Speed 24 mph    
Visibility 6 miles    
Events      
Averages and records for this station are not official NWS values.
T = Trace of Precipitation, MM = Missing Value Source: NWS Daily Summary

Daily Weather History Graph

Daily Weather History Graph

Search for Another Location

Airport:

Trip Planner

Search our weather history database for the weather conditions in past years. The results will help you decide how hot, cold, wet, or windy it might be!

Date:

Astronomy

Nov. 27, 2013 Rise Set
Actual Time 6:30 AM CST 4:24 PM CST
Civil Twilight 6:01 AM CST 4:52 PM CST
Nautical Twilight 5:29 AM CST 5:24 PM CST
Astronomical Twilight 4:58 AM CST 5:55 PM CST
Moon 12:39 AM CST (11/27) 12:53 PM CST (11/27)
Length of Visible Light 10h 50m
Length of Day
9h 53m
Waning Crescent, 31% of the Moon is Illuminated
Nov 27
Waning Crescent
Dec 2
New
Dec 9
First Quarter
Dec 17
Full
Dec 25
Last Quarter

Hourly Weather History & Observations

Time (CST) Temp. Windchill Dew Point Humidity Pressure Visibility Wind Dir Wind Speed Gust Speed Precip Events Conditions
12:25 AM 32.0 °F 24.2 °F 30.2 °F 93% 29.94 in 2.0 mi NNW 9.2 mph - 0.00 in   Overcast
12:36 AM 32.0 °F 23.0 °F 30.2 °F 93% 29.94 in 1.5 mi North 11.5 mph - 0.00 in   Overcast
12:56 AM 32.0 °F 23.0 °F 30.0 °F 92% 29.98 in 2.0 mi NNW 11.5 mph - 0.00 in   Overcast
1:00 AM 32.0 °F 24.2 °F 30.2 °F 93% 29.94 in 2.0 mi NNW 9.2 mph - 0.00 in   Overcast
1:12 AM 32.0 °F 23.6 °F 30.2 °F 93% 29.94 in 4.0 mi NNW 10.4 mph - 0.00 in   Overcast
1:56 AM 32.0 °F 21.2 °F 29.1 °F 89% 29.99 in 10.0 mi NNW 16.1 mph 24.2 mph 0.00 in   Overcast
2:56 AM 32.0 °F 23.0 °F 28.0 °F 85% 30.00 in 10.0 mi NNW 11.5 mph 18.4 mph 0.00 in   Overcast
3:36 AM 32.0 °F 24.2 °F 28.4 °F 87% 29.96 in 10.0 mi NW 9.2 mph - 0.00 in   Overcast
3:56 AM 32.0 °F 24.8 °F 28.0 °F 85% 30.00 in 10.0 mi NW 8.1 mph - 0.00 in   Overcast
4:56 AM 32.0 °F 22.1 °F 28.0 °F 85% 30.01 in 10.0 mi NW 13.8 mph - 0.00 in   Overcast
5:56 AM 32.0 °F 22.5 °F 28.0 °F 85% 30.04 in 7.0 mi NW 12.7 mph - 0.00 in   Overcast
6:56 AM 31.1 °F 22.4 °F 27.1 °F 85% 30.06 in 10.0 mi NNW 10.4 mph - 0.00 in   Overcast
7:56 AM 30.0 °F 19.1 °F 25.2 °F 82% 30.09 in 10.0 mi NNW 15.0 mph 23.0 mph 0.00 in   Overcast
8:39 AM 30.2 °F 19.8 °F 26.6 °F 86% 30.06 in 2.0 mi NNW 13.8 mph 21.9 mph 0.00 in   Overcast
8:48 AM 30.2 °F 21.3 °F 26.6 °F 86% 30.06 in 1.8 mi NW 10.4 mph - 0.00 in   Overcast
8:56 AM 29.1 °F 18.4 °F 27.1 °F 92% 30.11 in 1.5 mi NW 13.8 mph - 0.00 in   Mostly Cloudy
9:12 AM 28.4 °F 17.5 °F 26.6 °F 93% 30.07 in 3.0 mi WNW 13.8 mph - 0.00 in   Mostly Cloudy
9:28 AM 28.4 °F 17.5 °F 26.6 °F 93% 30.07 in 1.5 mi WNW 13.8 mph - 0.00 in   Overcast
9:30 AM 28.4 °F 16.6 °F 26.6 °F 93% 30.07 in 1.0 mi NW 16.1 mph - 0.00 in   Overcast
9:38 AM 28.4 °F 16.6 °F 26.6 °F 93% 30.07 in 0.8 mi NW 16.1 mph - 0.00 in   Overcast
9:40 AM 28.4 °F 17.5 °F 26.6 °F 93% 30.07 in 1.0 mi WNW 13.8 mph - 0.00 in   Overcast
9:43 AM 28.4 °F 16.6 °F 26.6 °F 93% 30.07 in 1.5 mi WNW 16.1 mph - 0.00 in   Overcast
9:56 AM 29.1 °F 17.5 °F 25.2 °F 85% 30.12 in 2.0 mi WNW 16.1 mph - 0.00 in   Overcast
10:05 AM 28.4 °F 15.8 °F 24.8 °F 86% 30.08 in 4.0 mi NW 18.4 mph - 0.00 in   Overcast
10:56 AM 29.1 °F 18.4 °F 24.1 °F 81% 30.12 in 10.0 mi NW 13.8 mph - 0.00 in   Overcast
11:56 AM 29.1 °F 18.4 °F 24.1 °F 81% 30.13 in 10.0 mi WNW 13.8 mph - 0.00 in   Overcast
12:18 PM 28.4 °F 17.0 °F 24.8 °F 86% 30.10 in 2.5 mi NW 15.0 mph - 0.00 in   Overcast
12:35 PM 28.4 °F 17.0 °F 24.8 °F 86% 30.10 in 1.2 mi WNW 15.0 mph - 0.00 in   Overcast
12:44 PM 28.4 °F 17.0 °F 23.0 °F 80% 30.10 in 1.0 mi WNW 15.0 mph - 0.00 in   Mostly Cloudy
12:47 PM 28.4 °F 17.0 °F 24.8 °F 86% 30.10 in 1.2 mi NW 15.0 mph - 0.00 in   Overcast
12:56 PM 28.0 °F 18.1 °F 24.1 °F 85% 30.16 in 1.2 mi NW 11.5 mph - 0.00 in   Overcast
1:10 PM 28.4 °F 17.0 °F 24.8 °F 86% 30.11 in 2.0 mi NW 15.0 mph - 0.00 in   Overcast
1:21 PM 28.4 °F 16.2 °F 23.0 °F 80% 30.12 in 1.2 mi NW 17.3 mph - 0.00 in   Overcast
1:26 PM 28.4 °F 17.5 °F 23.0 °F 80% 30.12 in 2.0 mi NW 13.8 mph - 0.00 in   Mostly Cloudy
1:34 PM 28.4 °F 19.7 °F 21.2 °F 74% 30.12 in 8.0 mi NW 9.2 mph - 0.00 in   Mostly Cloudy
1:44 PM 28.4 °F 17.0 °F 21.2 °F 74% 30.13 in 10.0 mi NW 15.0 mph - 0.00 in   Mostly Cloudy
1:56 PM 29.1 °F 18.9 °F 21.0 °F 72% 30.18 in 10.0 mi WNW 12.7 mph 21.9 mph 0.00 in   Mostly Cloudy
2:56 PM 29.1 °F 18.9 °F 21.0 °F 72% 30.21 in 10.0 mi WNW 12.7 mph - 0.00 in   Mostly Cloudy
3:56 PM 29.1 °F 19.4 °F 20.1 °F 69% 30.25 in 10.0 mi NW 11.5 mph - 0.00 in   Overcast
4:56 PM 28.0 °F 18.1 °F 19.0 °F 69% 30.28 in 10.0 mi NW 11.5 mph - 0.00 in   Overcast
5:56 PM 28.0 °F 17.0 °F 18.1 °F 66% 30.32 in 10.0 mi NW 13.8 mph - 0.00 in   Overcast
6:56 PM 25.2 °F 14.4 °F 16.2 °F 69% 30.34 in 10.0 mi NW 11.5 mph - 0.00 in   Scattered Clouds
7:56 PM 23.0 °F 12.4 °F 16.2 °F 75% 30.36 in 10.0 mi NW 10.4 mph - N/A   Clear
8:56 PM 22.1 °F 14.7 °F 16.2 °F 78% 30.38 in 10.0 mi WNW 5.8 mph - N/A   Clear
9:56 PM 20.1 °F - 15.1 °F 81% 30.39 in 10.0 mi Calm Calm - N/A   Clear
10:56 PM 16.2 °F - 13.1 °F 88% 30.40 in 10.0 mi Calm Calm - N/A   Clear
11:56 PM 16.2 °F - 13.1 °F 88% 30.41 in 10.0 mi Calm Calm - N/A   Clear